CW7443 Weather Reports


Display with metric or nautical units.
time (UTC)temp
F
wind
direction
speed
MPH
gust
MPH
rain 1hr
in
rain 24hr
in
rain mn
in
humidity
%
barometer
mb
20190617123330 66 142 0.0 1.0 0.00 0.32 0.16 96 1015.8
20190617122843 66 91 0.0 1.0 0.00 0.32 0.16 96 1015.8
20190617122335 66 5 0.0 1.0 0.00 0.32 0.16 96 1015.6
20190617121848 66 104 0.0 2.0 0.00 0.32 0.16 96 1015.6
20190617121341 66 104 0.0 2.0 0.00 0.32 0.16 96 1015.6
20190617120832 66 91 0.0 3.0 0.00 0.32 0.16 96 1015.5
20190617120344 66 133 0.0 3.0 0.00 0.32 0.16 96 1015.5
20190617115845 66 323 0.0 3.0 0.00 0.35 0.16 96 1015.5
20190617115337 66 96 0.0 1.0 0.00 0.35 0.16 96 1015.6
20190617114830 66 78 0.0 1.0 0.00 0.35 0.16 96 1015.6
20190617114336 65 346 0.0 1.0 0.00 0.35 0.16 96 1015.6
20190617113849 65 346 0.0 0.0 0.00 0.35 0.16 96 1015.5
20190617113341 65 346 0.0 0.0 0.00 0.35 0.16 96 1015.5
20190617112840 65 346 0.0 0.0 0.00 0.35 0.16 96 1015.5
20190617112332 65 346 0.0 1.0 0.00 0.35 0.16 96 1015.4
20190617111845 65 207 0.0 1.0 0.00 0.35 0.16 96 1015.4
20190617111341 65 191 0.0 1.0 0.00 0.35 0.16 96 1015.4
20190617110833 65 186 0.0 2.0 0.00 0.35 0.16 96 1015.2
20190617110345 65 201 0.0 2.0 0.00 0.35 0.16 96 1015.2
20190617105845 65 184 0.0 2.0 0.00 0.35 0.16 96 1015.2
20190617105337 65 219 0.0 2.0 0.00 0.35 0.16 96 1015.2
20190617104829 65 238 0.0 6.0 0.00 0.35 0.16 96 1015.2
20190617104340 65 224 1.0 6.0 0.00 0.35 0.16 96 1015.2
20190617103833 65 178 0.0 5.0 0.00 0.35 0.16 96 1014.9
20190617103345 65 152 0.0 4.0 0.00 0.35 0.16 96 1014.9
20190617102840 65 181 0.0 3.0 0.00 0.35 0.16 96 1014.9
20190617102331 65 117 0.0 2.0 0.00 0.35 0.16 96 1014.8
20190617101844 65 117 0.0 2.0 0.00 0.35 0.16 96 1014.8
20190617101340 65 128 0.0 2.0 0.00 0.35 0.16 96 1014.8
20190617100837 65 156 0.0 4.0 0.00 0.35 0.16 96 1014.3
20190617100329 65 174 0.0 4.0 0.00 0.35 0.16 96 1014.3
20190617095846 65 229 0.0 1.0 0.00 0.35 0.16 96 1014.3
20190617095338 65 229 0.0 1.0 0.00 0.35 0.16 96 1014.3
20190617094830 65 56 0.0 1.0 0.00 0.35 0.16 96 1014.3
20190617094328 65 103 0.0 1.0 0.00 0.35 0.16 96 1014.3
20190617093840 65 134 0.0 1.0 0.00 0.35 0.16 96 1013.9
20190617093332 65 134 0.0 1.0 0.00 0.35 0.16 96 1013.9
20190617092829 66 221 0.0 1.0 0.00 0.35 0.16 96 1013.9
20190617092346 66 221 0.0 1.0 0.00 0.35 0.16 96 1014.0
20190617091838 66 113 0.0 1.0 0.00 0.35 0.16 96 1014.0
20190617091334 66 113 0.0 0.0 0.00 0.35 0.16 96 1014.0
20190617090846 66 113 0.0 0.0 0.00 0.35 0.16 96 1013.7
20190617090337 66 113 0.0 0.0 0.00 0.35 0.16 96 1013.7
20190617085832 66 113 0.0 1.0 0.00 0.35 0.16 96 1013.7
20190617085344 66 113 0.0 1.0 0.00 0.35 0.16 96 1013.8
20190617084837 66 150 0.0 0.0 0.00 0.35 0.16 96 1013.8
20190617084334 66 171 0.0 0.0 0.00 0.35 0.16 96 1013.8
20190617083831 66 171 0.0 1.0 0.00 0.35 0.16 96 1014.2
20190617083342 66 171 0.0 3.0 0.00 0.35 0.16 96 1014.2
20190617082838 66 198 0.0 4.0 0.00 0.35 0.16 96 1014.2
20190617082330 66 199 1.0 4.0 0.01 0.35 0.16 95 1014.3
20190617081843 66 80 0.0 1.0 0.01 0.35 0.16 96 1014.3
20190617081329 66 163 0.0 3.0 0.01 0.35 0.16 95 1014.3
20190617080841 66 163 0.0 3.0 0.01 0.35 0.16 95 1014.3
20190617080333 66 166 0.0 1.0 0.01 0.35 0.16 95 1014.3
20190617075828 66 82 0.0 1.0 0.01 0.35 0.16 95 1014.3
20190617075341 66 115 0.0 1.0 0.02 0.35 0.16 95 1014.3
20190617074832 66 114 0.0 1.0 0.02 0.35 0.16 95 1014.3
20190617074338 66 122 0.0 1.0 0.02 0.35 0.16 95 1014.3
20190617073835 66 122 0.0 0.0 0.02 0.35 0.16 95 1014.2
20190617073327 66 122 0.0 1.0 0.02 0.35 0.16 95 1014.2
20190617072843 66 122 0.0 1.0 0.02 0.35 0.16 95 1014.2
20190617072334 66 122 0.0 1.0 0.01 0.34 0.15 95 1014.0
20190617071827 66 74 0.0 0.0 0.01 0.34 0.15 95 1014.0
20190617071343 66 74 0.0 0.0 0.01 0.34 0.15 95 1014.0
20190617070834 66 74 0.0 0.0 0.01 0.34 0.15 95 1013.7
20190617070346 66 74 0.0 0.0 0.01 0.34 0.15 94 1013.7
20190617065843 66 74 0.0 0.0 0.01 0.39 0.15 94 1013.7
20190617065335 66 74 0.0 0.0 0.00 0.38 0.14 94 1013.9
20190617064831 66 74 0.0 0.0 0.00 0.38 0.14 94 1013.9
20190617064342 67 74 0.0 0.0 0.00 0.38 0.14 94 1013.9
20190617063835 67 74 0.0 0.0 0.00 0.38 0.14 94 1013.9
20190617063327 67 74 0.0 1.0 0.00 0.38 0.14 94 1013.9
20190617062842 67 76 0.0 1.0 0.00 0.38 0.14 94 1013.9
20190617062333 67 76 0.0 1.0 0.00 0.38 0.14 94 1014.1
20190617061826 67 90 0.0 1.0 0.01 0.38 0.14 94 1014.1
20190617061341 67 134 0.0 3.0 0.01 0.38 0.14 94 1014.1
20190617060834 67 134 0.0 3.0 0.02 0.38 0.14 94 1013.8
20190617060329 67 163 0.0 3.0 0.03 0.38 0.14 94 1013.8
20190617055845 67 236 0.0 3.0 0.04 0.50 0.14 94 1013.8
20190617055337 67 85 0.0 1.0 0.04 0.50 0.14 93 1013.7
20190617054829 67 82 0.0 0.0 0.05 0.50 0.14 93 1013.7
20190617054345 67 82 0.0 0.0 0.06 0.50 0.14 93 1013.7
20190617053837 68 82 0.0 0.0 0.06 0.50 0.14 93 1013.5
20190617053329 68 82 0.0 2.0 0.06 0.50 0.14 93 1013.5
20190617052836 68 82 0.0 2.0 0.06 0.50 0.14 93 1013.5
20190617052328 68 79 0.0 2.0 0.06 0.50 0.14 92 1013.7
20190617051840 68 79 0.0 2.0 0.07 0.49 0.13 92 1013.7
20190617051337 68 97 0.0 2.0 0.09 0.49 0.13 92 1013.7
20190617050829 68 99 0.0 2.0 0.12 0.48 0.12 92 1013.7
20190617050341 68 99 0.0 1.0 0.11 0.47 0.11 92 1013.7
20190617045834 68 99 0.0 3.0 0.10 0.59 0.10 91 1013.7
20190617045326 69 135 0.0 4.0 0.10 0.59 0.10 91 1013.7
20190617044839 69 131 1.0 5.0 0.09 0.58 0.09 91 1013.7
20190617044335 69 105 0.0 5.0 0.08 0.57 0.08 90 1013.7
20190617043827 69 140 1.0 5.0 0.08 0.57 0.08 90 1013.3
20190617043339 70 74 0.0 4.0 0.08 0.57 0.08 90 1013.3
20190617042836 70 197 0.0 7.0 0.08 0.57 0.08 89 1013.3
20190617042328 71 80 1.0 7.0 0.08 0.57 0.08 89 1013.2
20190617041845 71 158 1.0 7.0 0.05 0.54 0.05 90 1013.2
20190617041341 72 223 0.0 2.0 0.04 0.53 0.04 89 1013.2
20190617040836 72 130 0.0 1.0 0.00 0.49 0.00 89 1013.2
20190617040328 72 130 0.0 3.0 0.00 0.49 0.00 89 1013.2
20190617035844 72 186 0.0 3.0 0.00 0.55 0.49 89 1013.2
20190617035336 72 210 0.0 5.0 0.00 0.55 0.49 89 1013.4
20190617034828 72 200 0.0 5.0 0.00 0.55 0.49 90 1013.4
20190617034341 72 234 1.0 3.0 0.00 0.55 0.49 91 1013.4
20190617033834 71 204 0.0 1.0 0.00 0.55 0.49 91 1013.2
20190617033326 71 130 0.0 0.0 0.00 0.55 0.49 91 1013.2
20190617032842 71 130 0.0 0.0 0.00 0.55 0.49 91 1013.2
20190617032338 71 130 0.0 0.0 0.00 0.55 0.49 91 1013.0
20190617031830 71 130 0.0 0.0 0.00 0.55 0.49 91 1013.0
20190617031325 71 130 0.0 0.0 0.00 0.55 0.49 91 1012.9
20190617030838 71 130 0.0 0.0 0.00 0.55 0.49 91 1012.9
20190617030330 71 130 0.0 0.0 0.00 0.55 0.49 91 1012.9
20190617025841 71 130 0.0 0.0 0.00 0.56 0.49 91 1012.9
20190617025333 71 130 0.0 0.0 0.00 0.56 0.49 91 1012.9
20190617024845 71 130 0.0 0.0 0.00 0.56 0.49 91 1012.9
20190617024341 71 130 0.0 0.0 0.00 0.56 0.49 91 1012.9
20190617023833 72 130 0.0 0.0 0.00 0.56 0.49 90 1012.8
20190617023326 72 130 0.0 0.0 0.00 0.56 0.49 90 1012.8
20190617022841 72 130 0.0 0.0 0.00 0.56 0.49 90 1012.8
20190617022333 72 130 0.0 0.0 0.00 0.56 0.49 90 1012.9
20190617021828 72 130 0.0 0.0 0.00 0.56 0.49 90 1012.9
20190617021343 72 130 0.0 1.0 0.00 0.56 0.49 90 1012.9
20190617020836 72 130 0.0 1.0 0.00 0.56 0.49 90 1012.6
20190617020327 71 130 0.0 1.0 0.00 0.56 0.49 90 1012.6
20190617015840 72 46 0.0 1.0 0.00 0.60 0.49 90 1012.6
20190617015331 72 46 0.0 1.0 0.00 0.60 0.49 90 1012.0
20190617014843 72 46 0.0 0.0 0.00 0.60 0.49 89 1012.0
20190617014333 72 46 0.0 0.0 0.00 0.60 0.49 89 1012.0
20190617013825 72 46 0.0 0.0 0.00 0.60 0.49 88 1012.0
20190617013337 72 46 0.0 0.0 0.00 0.60 0.49 87 1012.0
20190617012831 72 46 0.0 0.0 0.00 0.60 0.49 87 1012.0
20190617012344 72 46 0.0 0.0 0.00 0.60 0.49 87 1011.9
20190617011835 73 46 0.0 0.0 0.00 0.60 0.49 86 1011.9
20190617011337 73 46 0.0 0.0 0.00 0.60 0.49 85 1011.9
20190617010829 73 46 0.0 0.0 0.00 0.60 0.49 84 1011.8
20190617010416 73 46 0.0 0.0 0.00 0.60 0.49 84 1011.8
20190617005830 74 46 0.0 0.0 0.00 0.60 0.49 83 1011.8
20190617005339 74 46 0.0 0.0 0.00 0.60 0.49 84 1011.9
20190617004831 74 46 0.0 0.0 0.00 0.60 0.49 83 1011.9
20190617004340 74 46 0.0 0.0 0.00 0.60 0.49 83 1011.9
20190617003837 75 46 0.0 0.0 0.00 0.60 0.49 82 1011.9
20190617003328 75 46 0.0 0.0 0.00 0.60 0.49 82 1011.9
20190617002840 75 46 0.0 0.0 0.00 0.60 0.49 81 1011.9
20190617002331 75 22 0.0 0.0 0.00 0.60 0.49 81 1011.9
20190617001823 75 22 0.0 0.0 0.00 0.60 0.49 80 1011.9
20190617001334 75 24 0.0 0.0 0.00 0.60 0.49 80 1011.9
20190617000824 75 347 0.0 1.0 0.00 0.60 0.49 80 1011.6
20190617000336 76 17 0.0 1.0 0.00 0.60 0.49 79 1011.6
20190616235831 76 180 0.0 1.0 0.00 0.67 0.49 78 1011.6
20190616235322 76 215 0.0 1.0 0.00 0.67 0.49 78 1011.6
20190616234839 76 172 0.0 3.0 0.00 0.67 0.49 77 1011.6
20190616234336 76 176 0.0 6.0 0.00 0.67 0.49 77 1011.6
20190616233828 76 112 0.0 6.0 0.00 0.67 0.49 77 1011.6
20190616233340 76 176 0.0 6.0 0.00 0.67 0.49 77 1011.6
20190616232837 76 162 0.0 6.0 0.00 0.67 0.49 77 1011.6
20190616232328 76 176 1.0 6.0 0.00 0.67 0.49 76 1011.7
20190616231840 77 159 0.0 6.0 0.00 0.67 0.49 76 1011.7
20190616231330 77 103 1.0 6.0 0.00 0.67 0.49 76 1011.7
20190616230842 77 137 1.0 4.0 0.00 0.67 0.49 76 1012.0
20190616230334 77 90 1.0 5.0 0.00 0.67 0.49 75 1012.0
20190616225838 77 236 1.0 5.0 0.00 0.67 0.49 75 1012.0
20190616225334 77 140 0.0 4.0 0.00 0.67 0.49 75 1012.1
20190616224826 77 84 0.0 6.0 0.00 0.67 0.49 74 1012.1
20190616224341 77 24 1.0 7.0 0.00 0.67 0.49 74 1012.1
20190616223834 77 130 2.0 7.0 0.00 0.67 0.49 73 1012.1
20190616223325 78 192 1.0 6.0 0.00 0.67 0.49 73 1012.1
20190616222840 78 117 2.0 6.0 0.00 0.67 0.49 72 1012.1
20190616222332 78 78 1.0 4.0 0.00 0.67 0.49 73 1012.1
20190616221825 78 123 1.0 2.0 0.00 0.67 0.49 72 1012.1
20190616221337 78 144 0.0 2.0 0.00 0.67 0.49 74 1012.1
20190616220829 77 295 0.0 6.0 0.00 0.67 0.49 74 1012.0
20190616220339 77 89 1.0 6.0 0.00 0.67 0.49 73 1012.0
20190616215834 77 202 3.0 6.0 0.00 0.67 0.49 72 1012.0
20190616215329 78 182 2.0 8.0 0.00 0.67 0.49 72 1011.8
20190616214842 78 288 2.0 8.0 0.00 0.67 0.49 73 1011.8
20190616214322 78 173 3.0 8.0 0.00 0.67 0.49 72 1011.9
20190616213834 78 298 1.0 7.0 0.00 0.67 0.49 72 1011.9
20190616213324 78 279 1.0 7.0 0.00 0.67 0.49 72 1011.9
20190616212838 78 132 2.0 7.0 0.00 0.67 0.49 72 1011.9
20190616212328 78 138 1.0 6.0 0.00 0.67 0.49 72 1012.1
20190616211838 78 146 2.0 6.0 0.00 0.67 0.49 72 1012.1
20190616211343 77 227 1.0 5.0 0.00 0.67 0.49 75 1012.1
20190616210832 77 147 1.0 5.0 0.00 0.67 0.49 73 1012.1
20190616210324 77 132 1.0 8.0 0.00 0.67 0.49 72 1012.1
20190616205838 77 76 2.0 8.0 0.00 0.75 0.49 70 1012.1
20190616205329 77 163 1.0 7.0 0.00 0.75 0.49 71 1012.2
20190616204826 78 211 2.0 7.0 0.00 0.75 0.49 70 1012.2
20190616204337 78 146 3.0 8.0 0.00 0.75 0.49 69 1012.2
20190616203829 78 257 2.0 9.0 0.00 0.75 0.49 68 1012.3
20190616203321 78 183 1.0 10.0 0.00 0.75 0.49 70 1012.3
20190616202837 78 146 2.0 10.0 0.00 0.75 0.49 68 1012.3
20190616202328 78 169 1.0 7.0 0.00 0.75 0.49 69 1012.2
20190616201821 77 130 2.0 8.0 0.00 0.75 0.49 68 1012.2
20190616201334 78 183 3.0 8.0 0.00 0.75 0.49 67 1012.2
20190616200826 77 118 0.0 10.0 0.00 0.75 0.49 70 1012.5
20190616200338 77 172 2.0 10.0 0.00 0.75 0.49 70 1012.5
20190616195830 77 188 1.0 9.0 0.00 0.75 0.49 71 1012.5
20190616195326 77 182 2.0 7.0 0.00 0.75 0.49 69 1012.6
20190616194838 77 194 1.0 7.0 0.00 0.75 0.49 72 1012.6
20190616194334 77 204 1.0 7.0 0.00 0.75 0.49 72 1012.6
20190616193826 77 117 2.0 8.0 0.00 0.75 0.49 70 1012.7
20190616193337 77 119 2.0 10.0 0.00 0.75 0.49 74 1012.7
20190616192827 76 225 1.0 10.0 0.00 0.75 0.49 73 1012.9
20190616192338 75 78 1.0 8.0 0.00 0.75 0.49 75 1012.9
20190616191828 75 137 0.0 8.0 0.00 0.75 0.49 76 1012.9
20190616191322 75 83 1.0 8.0 0.00 0.75 0.49 76 1012.7
20190616190835 75 225 1.0 8.0 0.00 0.75 0.49 76 1012.7
20190616190330 75 87 1.0 5.0 0.00 0.75 0.49 76 1012.7
20190616185827 75 183 0.0 5.0 0.00 0.75 0.49 77 1012.6
20190616185338 75 119 1.0 5.0 0.00 0.75 0.49 76 1012.6
20190616184831 75 138 1.0 6.0 0.00 0.75 0.49 76 1012.6
20190616184320 75 263 1.0 6.0 0.00 0.75 0.49 77 1012.7
20190616183833 75 179 1.0 6.0 0.00 0.75 0.49 76 1012.7
20190616183325 75 121 0.0 9.0 0.00 0.75 0.49 76 1012.7
20190616182839 74 93 2.0 9.0 0.00 0.75 0.49 76 1012.7
20190616182332 75 71 3.0 11.0 0.00 0.75 0.49 76 1012.6
20190616181844 75 182 4.0 11.0 0.00 0.75 0.49 74 1012.6
20190616181321 75 97 1.0 10.0 0.00 0.75 0.49 77 1012.6
20190616180833 75 159 3.0 14.0 0.00 0.75 0.49 75 1012.6
20190616180329 75 231 3.0 14.0 0.00 0.75 0.49 75 1012.6
20190616175830 75 257 1.0 7.0 0.00 0.76 0.49 76 1012.6
20190616175324 74 86 1.0 8.0 0.00 0.76 0.49 77 1012.6
20190616174837 74 102 3.0 8.0 0.00 0.76 0.49 76 1012.6
20190616174338 74 93 3.0 10.0 0.00 0.76 0.49 75 1012.6
20190616173830 74 180 3.0 10.0 0.00 0.76 0.49 76 1012.6
20190616173323 74 91 2.0 9.0 0.00 0.76 0.49 78 1012.6
20190616172838 74 116 2.0 7.0 0.00 0.76 0.49 78 1012.6
20190616172330 74 78 2.0 8.0 0.00 0.76 0.49 77 1012.6
20190616171819 73 135 1.0 8.0 0.00 0.76 0.49 80 1012.6
20190616171332 73 116 1.0 8.0 0.00 0.76 0.49 80 1012.6
20190616170823 73 300 2.0 10.0 0.00 0.76 0.49 80 1012.5
20190616170318 72 109 3.0 10.0 0.00 0.76 0.49 81 1012.5
20190616165834 72 252 3.0 7.0 0.00 0.76 0.49 83 1012.5
20190616165326 72 11 1.0 5.0 0.00 0.76 0.49 85 1012.4
20190616164839 71 124 1.0 5.0 0.00 0.76 0.49 85 1012.4
20190616164321 71 83 0.0 6.0 0.00 0.76 0.49 88 1012.3
20190616163834 70 90 2.0 6.0 0.00 0.76 0.49 88 1012.3
20190616163325 70 177 0.0 7.0 0.00 0.76 0.49 89 1012.3
20190616162820 70 82 0.0 7.0 0.00 0.76 0.49 89 1012.4
20190616162332 70 105 2.0 8.0 0.00 0.76 0.49 89 1012.4
20190616161825 69 200 2.0 10.0 0.00 0.76 0.49 90 1012.4
20190616161322 69 161 1.0 11.0 0.00 0.76 0.49 92 1012.6
20190616160833 68 163 3.0 11.0 0.00 0.76 0.49 92 1012.6
20190616160327 68 307 2.0 10.0 0.00 0.76 0.49 92 1012.6
20190616155837 68 142 1.0 8.0 0.00 0.76 0.49 93 1012.6
20190616155333 68 195 2.0 8.0 0.00 0.76 0.49 93 1012.2
20190616154826 68 131 1.0 9.0 0.00 0.76 0.49 94 1012.2
20190616154321 68 154 1.0 9.0 0.00 0.76 0.49 94 1012.1
20190616153834 68 140 0.0 1.0 0.00 0.76 0.49 94 1012.1
20190616153327 68 44 0.0 5.0 0.00 0.76 0.49 95 1012.1
20190616152821 68 38 1.0 5.0 0.00 0.76 0.49 95 1012.1
20190616152334 68 92 0.0 5.0 0.00 0.76 0.49 95 1012.1
20190616151826 67 263 0.0 5.0 0.00 0.76 0.49 95 1012.1
20190616151326 67 107 0.0 3.0 0.00 0.76 0.49 95 1012.3
20190616150817 67 166 0.0 4.0 0.00 0.76 0.49 95 1012.3
20190616150333 67 183 0.0 7.0 0.00 0.76 0.49 95 1012.3
20190616145829 67 165 1.0 7.0 0.00 0.76 0.49 95 1012.3
20190616145321 67 203 1.0 5.0 0.00 0.76 0.49 95 1012.6
20190616144833 67 133 1.0 4.0 0.00 0.76 0.49 96 1012.6
20190616144329 67 92 0.0 2.0 0.00 0.76 0.49 96 1012.6
20190616143820 67 88 0.0 2.0 0.00 0.76 0.49 96 1012.1
20190616143332 67 99 0.0 3.0 0.01 0.76 0.49 96 1012.1
20190616142827 67 166 1.0 3.0 0.01 0.76 0.49 96 1012.1
20190616142319 67 192 0.0 4.0 0.02 0.76 0.49 96 1011.4
20190616141830 67 203 0.0 4.0 0.02 0.76 0.49 96 1011.4
20190616141328 67 219 0.0 3.0 0.03 0.76 0.49 96 1011.4
20190616140820 67 158 0.0 2.0 0.05 0.76 0.49 96 1011.9
20190616140332 67 131 0.0 3.0 0.06 0.76 0.49 96 1011.9
20190616135833 67 193 0.0 3.0 0.06 0.76 0.49 96 1011.9
20190616135325 67 210 0.0 1.0 0.07 0.76 0.49 96 1012.2
20190616134817 67 128 0.0 4.0 0.07 0.76 0.49 96 1012.2
20190616134334 67 105 0.0 4.0 0.07 0.76 0.49 96 1012.2
20190616133826 67 79 0.0 2.0 0.07 0.76 0.49 96 1012.0
20190616133317 67 163 0.0 2.0 0.06 0.75 0.48 96 1012.0
20190616132827 67 142 0.0 2.0 0.06 0.75 0.48 96 1012.0
20190616132338 67 155 0.0 2.0 0.06 0.74 0.47 96 1011.6
20190616131828 67 129 0.0 0.0 0.07 0.74 0.47 96 1011.6
20190616131333 67 131 0.0 0.0 0.08 0.73 0.46 96 1011.6
20190616130830 67 131 0.0 0.0 0.08 0.71 0.44 96 1011.6
20190616130321 67 5 0.0 0.0 0.09 0.70 0.43 96 1011.6
20190616125837 67 139 0.0 0.0 0.10 0.70 0.43 96 1011.6
20190616125327 67 139 0.0 0.0 0.09 0.69 0.42 96 1011.6
20190616124818 67 139 0.0 0.0 0.10 0.69 0.42 96 1011.6
20190616124334 67 139 0.0 0.0 0.11 0.69 0.42 96 1011.6
20190616123826 67 139 0.0 1.0 0.11 0.69 0.42 96 1011.6